Year,Month,Day,Hour,Minute,Value (Times are PST for temperature in C)
2015,01,30,00,00,3.10
2015,01,30,00,01,3.10
2015,01,30,00,02,3.10
2015,01,30,00,03,3.10
2015,01,30,00,04,3.10
2015,01,30,00,05,3.10
2015,01,30,00,06,3.10
2015,01,30,00,07,3.20
2015,01,30,00,08,3.20
2015,01,30,00,09,3.20
2015,01,30,00,10,3.20
2015,01,30,00,11,3.20
2015,01,30,00,12,3.30
2015,01,30,00,13,3.30
2015,01,30,00,14,3.20
2015,01,30,00,15,3.20
2015,01,30,00,16,3.20
2015,01,30,00,17,3.20
2015,01,30,00,18,3.20
2015,01,30,00,19,3.20
2015,01,30,00,20,3.20
2015,01,30,00,21,3.20
2015,01,30,00,22,3.20
2015,01,30,00,23,3.20
2015,01,30,00,24,3.20
2015,01,30,00,25,3.20
2015,01,30,00,26,3.10
2015,01,30,00,27,3.10
2015,01,30,00,28,3.10
2015,01,30,00,29,3.10
2015,01,30,00,30,3.10
2015,01,30,00,31,3.10
2015,01,30,00,32,3.10
2015,01,30,00,33,3.10
2015,01,30,00,34,3.10
2015,01,30,00,35,3.10
2015,01,30,00,36,3.00
2015,01,30,00,37,3.00
2015,01,30,00,38,3.00
2015,01,30,00,39,2.90
2015,01,30,00,40,2.90
2015,01,30,00,41,3.00
2015,01,30,00,42,3.00
2015,01,30,00,43,3.00
2015,01,30,00,44,3.10
2015,01,30,00,45,3.10
2015,01,30,00,46,3.00
2015,01,30,00,47,3.00
2015,01,30,00,48,3.00
2015,01,30,00,49,3.00
2015,01,30,00,50,3.00
2015,01,30,00,51,2.90
2015,01,30,00,52,2.90
2015,01,30,00,53,2.90
2015,01,30,00,54,2.90
2015,01,30,00,55,2.90
2015,01,30,00,56,2.90
2015,01,30,00,57,2.90
2015,01,30,00,58,2.80
2015,01,30,00,59,2.80
2015,01,30,01,00,2.80
2015,01,30,01,01,2.80
2015,01,30,01,02,2.80
2015,01,30,01,03,2.80
2015,01,30,01,04,2.90
2015,01,30,01,05,2.90
2015,01,30,01,06,2.90
2015,01,30,01,07,3.00
2015,01,30,01,08,3.00
2015,01,30,01,09,3.00
2015,01,30,01,10,3.00
2015,01,30,01,11,3.00
2015,01,30,01,12,3.10
2015,01,30,01,13,3.10
2015,01,30,01,14,3.10
2015,01,30,01,15,3.20
2015,01,30,01,16,3.20
2015,01,30,01,17,3.20
2015,01,30,01,18,3.30
2015,01,30,01,19,3.30
2015,01,30,01,20,3.30
2015,01,30,01,21,3.30
2015,01,30,01,22,3.30
2015,01,30,01,23,3.30
2015,01,30,01,24,3.30
2015,01,30,01,25,3.30
2015,01,30,01,26,3.30
2015,01,30,01,27,3.30
2015,01,30,01,28,3.30
2015,01,30,01,29,3.30
2015,01,30,01,30,3.30
2015,01,30,01,31,3.40
2015,01,30,01,32,3.40
2015,01,30,01,33,3.40
2015,01,30,01,34,3.40
2015,01,30,01,35,3.40
2015,01,30,01,36,3.40
2015,01,30,01,37,3.40
2015,01,30,01,38,3.30
2015,01,30,01,39,3.30
2015,01,30,01,40,3.30
2015,01,30,01,41,3.20
2015,01,30,01,42,3.10
2015,01,30,01,43,3.10
2015,01,30,01,44,3.00
2015,01,30,01,45,3.00
2015,01,30,01,46,2.90
2015,01,30,01,47,2.90
2015,01,30,01,48,2.80
2015,01,30,01,49,2.80
2015,01,30,01,50,2.70
2015,01,30,01,51,2.70
2015,01,30,01,52,2.60
2015,01,30,01,53,2.60
2015,01,30,01,54,2.60
2015,01,30,01,55,2.60
2015,01,30,01,56,2.60
2015,01,30,01,57,2.60
2015,01,30,01,58,2.60
2015,01,30,01,59,2.60
2015,01,30,02,00,2.60
2015,01,30,02,01,2.50
2015,01,30,02,02,2.50
2015,01,30,02,03,2.40
2015,01,30,02,04,2.50
2015,01,30,02,05,2.50
2015,01,30,02,06,2.50
2015,01,30,02,07,2.50
2015,01,30,02,08,2.60
2015,01,30,02,09,2.60
2015,01,30,02,10,2.60
2015,01,30,02,11,2.60
2015,01,30,02,12,2.70
2015,01,30,02,13,2.70
2015,01,30,02,14,2.70
2015,01,30,02,15,2.70
2015,01,30,02,16,2.70
2015,01,30,02,17,2.70
2015,01,30,02,18,2.70
2015,01,30,02,19,2.70
2015,01,30,02,20,2.70
2015,01,30,02,21,2.70
2015,01,30,02,22,2.70
2015,01,30,02,23,2.70
2015,01,30,02,24,2.70
2015,01,30,02,25,2.70
2015,01,30,02,26,2.70
2015,01,30,02,27,2.70
2015,01,30,02,28,2.80
2015,01,30,02,29,2.80
2015,01,30,02,30,2.80
2015,01,30,02,31,2.70
2015,01,30,02,32,2.70
2015,01,30,02,33,2.70
2015,01,30,02,34,2.70
2015,01,30,02,35,2.70
2015,01,30,02,36,2.70
2015,01,30,02,37,2.60
2015,01,30,02,38,2.60
2015,01,30,02,39,2.60
2015,01,30,02,40,2.60
2015,01,30,02,41,2.60
2015,01,30,02,42,2.60
2015,01,30,02,43,2.60
2015,01,30,02,44,2.60
2015,01,30,02,45,2.60
2015,01,30,02,46,2.60
2015,01,30,02,47,2.50
2015,01,30,02,48,2.50
2015,01,30,02,49,2.50
2015,01,30,02,50,2.40
2015,01,30,02,51,2.40
2015,01,30,02,52,2.40
2015,01,30,02,53,2.40
2015,01,30,02,54,2.40
2015,01,30,02,55,2.30
2015,01,30,02,56,2.30
2015,01,30,02,57,2.30
2015,01,30,02,58,2.20
2015,01,30,02,59,2.20
2015,01,30,03,00,2.20
2015,01,30,03,01,2.30
2015,01,30,03,02,2.30
2015,01,30,03,03,2.30
2015,01,30,03,04,2.30
2015,01,30,03,05,2.30
2015,01,30,03,06,2.40
2015,01,30,03,07,2.40
2015,01,30,03,08,2.40
2015,01,30,03,09,2.40
2015,01,30,03,10,2.40
2015,01,30,03,11,2.40
2015,01,30,03,12,2.40
2015,01,30,03,13,2.40
2015,01,30,03,14,2.40
2015,01,30,03,15,2.40
2015,01,30,03,16,2.40
2015,01,30,03,17,2.40
2015,01,30,03,18,2.30
2015,01,30,03,19,2.30
2015,01,30,03,20,2.30
2015,01,30,03,21,2.30
2015,01,30,03,22,2.30
2015,01,30,03,23,2.30
2015,01,30,03,24,2.20
2015,01,30,03,25,2.20
2015,01,30,03,26,2.20
2015,01,30,03,27,2.20
2015,01,30,03,28,2.20
2015,01,30,03,29,2.10
2015,01,30,03,30,2.20
2015,01,30,03,31,2.20
2015,01,30,03,32,2.20
2015,01,30,03,33,2.20
2015,01,30,03,34,2.20
2015,01,30,03,35,2.20
2015,01,30,03,36,2.20
2015,01,30,03,37,2.20
2015,01,30,03,38,2.20
2015,01,30,03,39,2.20
2015,01,30,03,40,2.10
2015,01,30,03,41,2.10
2015,01,30,03,42,2.10
2015,01,30,03,43,2.10
2015,01,30,03,44,2.10
2015,01,30,03,45,2.10
2015,01,30,03,46,2.20
2015,01,30,03,47,2.10
2015,01,30,03,48,2.10
2015,01,30,03,49,2.10
2015,01,30,03,50,2.10
2015,01,30,03,51,2.10
2015,01,30,03,52,2.10
2015,01,30,03,53,2.10
2015,01,30,03,54,2.10
2015,01,30,03,55,2.10
2015,01,30,03,56,2.10
2015,01,30,03,57,2.10
2015,01,30,03,58,2.10
2015,01,30,03,59,2.10
2015,01,30,04,00,2.10
2015,01,30,04,01,2.10
2015,01,30,04,02,2.10
2015,01,30,04,03,2.10
2015,01,30,05,02,1.60
2015,01,30,05,03,1.50
2015,01,30,05,04,1.50
2015,01,30,05,05,1.50
2015,01,30,05,06,1.50
2015,01,30,05,07,1.60
2015,01,30,05,08,1.60
2015,01,30,05,09,1.60
2015,01,30,05,10,1.70
2015,01,30,05,11,1.70
2015,01,30,05,12,1.60
2015,01,30,05,13,1.60
2015,01,30,05,14,1.60
2015,01,30,05,15,1.60
2015,01,30,05,16,1.50
2015,01,30,05,17,1.50
2015,01,30,05,18,1.50
2015,01,30,05,19,1.50
2015,01,30,05,20,1.50
2015,01,30,05,21,1.60
2015,01,30,05,22,1.60
2015,01,30,05,23,1.60
2015,01,30,05,24,1.60
2015,01,30,05,25,1.70
2015,01,30,05,26,1.70
2015,01,30,05,27,1.70
2015,01,30,05,28,1.70
2015,01,30,05,29,1.70
2015,01,30,05,30,1.70
2015,01,30,05,31,1.70
2015,01,30,05,32,1.70
2015,01,30,05,33,1.70
2015,01,30,05,34,1.80
2015,01,30,05,35,1.70
2015,01,30,05,36,1.70
2015,01,30,05,37,1.70
2015,01,30,05,38,1.70
2015,01,30,05,39,1.70
2015,01,30,05,40,1.60
2015,01,30,05,41,1.60
2015,01,30,05,42,1.60
2015,01,30,05,43,1.50
2015,01,30,05,44,1.50
2015,01,30,05,45,1.50
2015,01,30,05,46,1.50
2015,01,30,05,47,1.50
2015,01,30,05,48,1.50
2015,01,30,05,49,1.50
2015,01,30,05,50,1.50
2015,01,30,05,51,1.50
2015,01,30,05,52,1.50
2015,01,30,05,53,1.50
2015,01,30,05,54,1.50
2015,01,30,05,55,1.60
2015,01,30,05,56,1.60
2015,01,30,05,57,1.60
2015,01,30,05,58,1.60
2015,01,30,05,59,1.60
2015,01,30,06,00,1.60
2015,01,30,06,01,1.70
2015,01,30,06,02,1.70
2015,01,30,06,03,1.70
2015,01,30,06,04,1.70
2015,01,30,06,05,1.70
2015,01,30,06,06,1.80
2015,01,30,06,07,1.80
2015,01,30,06,08,1.90
2015,01,30,06,09,1.90
2015,01,30,06,10,2.00
2015,01,30,06,11,2.00
2015,01,30,06,12,2.10
2015,01,30,06,13,2.10
2015,01,30,06,14,2.10
2015,01,30,06,15,2.10
2015,01,30,06,16,2.10
2015,01,30,06,17,2.10
2015,01,30,06,18,2.10
2015,01,30,06,19,2.10
2015,01,30,06,20,2.00
2015,01,30,06,21,2.00
2015,01,30,06,22,2.00
2015,01,30,06,23,2.00
2015,01,30,06,24,2.00
2015,01,30,06,25,1.90
2015,01,30,06,26,1.90
2015,01,30,06,27,1.90
2015,01,30,06,28,1.80
2015,01,30,06,29,1.60
2015,01,30,06,30,1.50
2015,01,30,06,31,1.30
2015,01,30,06,32,1.20
2015,01,30,06,33,1.10
2015,01,30,06,34,1.00
2015,01,30,06,35,1.00
2015,01,30,06,36,0.90
2015,01,30,06,37,0.90
2015,01,30,06,38,0.80
2015,01,30,06,39,0.80
2015,01,30,06,40,0.80
2015,01,30,06,41,0.90
2015,01,30,06,42,0.90
2015,01,30,06,43,0.90
2015,01,30,06,44,0.90
2015,01,30,06,45,0.90
2015,01,30,06,46,0.90
2015,01,30,06,47,0.90
2015,01,30,06,48,0.90
2015,01,30,06,49,0.90
2015,01,30,06,50,0.90
2015,01,30,06,51,0.90
2015,01,30,06,52,0.90
2015,01,30,06,53,0.90
2015,01,30,06,54,0.90
2015,01,30,06,55,0.90
2015,01,30,06,56,0.90
2015,01,30,06,57,0.90
2015,01,30,06,58,0.90
2015,01,30,06,59,0.90
2015,01,30,07,00,0.90
2015,01,30,07,01,0.90
2015,01,30,07,02,0.90
2015,01,30,07,03,0.90
2015,01,30,07,04,0.90
2015,01,30,07,05,1.00
2015,01,30,07,06,1.00
2015,01,30,07,07,1.00
2015,01,30,07,08,1.00
2015,01,30,07,09,1.00
2015,01,30,07,10,1.10
2015,01,30,07,11,1.10
2015,01,30,07,12,1.10
2015,01,30,07,13,1.10
2015,01,30,07,14,1.20
2015,01,30,07,15,1.20
2015,01,30,07,16,1.20
2015,01,30,07,17,1.20
2015,01,30,07,18,1.20
2015,01,30,07,19,1.30
2015,01,30,07,20,1.30
2015,01,30,07,21,1.40
2015,01,30,07,22,1.40
2015,01,30,07,23,1.40
2015,01,30,07,24,1.50
2015,01,30,07,25,1.60
2015,01,30,07,26,1.60
2015,01,30,07,27,1.50
2015,01,30,07,28,1.30
2015,01,30,07,29,1.20
2015,01,30,07,30,1.00
2015,01,30,07,31,0.90
2015,01,30,07,32,0.80
2015,01,30,07,33,0.70
2015,01,30,07,34,0.70
2015,01,30,07,35,0.60
2015,01,30,07,36,0.60
2015,01,30,07,37,0.50
2015,01,30,07,38,0.50
2015,01,30,07,39,0.50
2015,01,30,07,40,0.50
2015,01,30,07,41,0.40
2015,01,30,07,42,0.40
2015,01,30,07,43,0.40
2015,01,30,07,44,0.40
2015,01,30,07,45,0.50
2015,01,30,07,46,0.50
2015,01,30,07,47,0.60
2015,01,30,07,48,0.60
2015,01,30,07,49,0.60
2015,01,30,07,50,0.70
2015,01,30,07,51,0.70
2015,01,30,07,52,0.70
2015,01,30,07,53,0.70
2015,01,30,07,54,0.70
2015,01,30,07,55,0.70
2015,01,30,07,56,0.80
2015,01,30,07,57,0.80
2015,01,30,07,58,0.80
2015,01,30,07,59,0.80
2015,01,30,08,00,0.80
2015,01,30,08,01,0.80
2015,01,30,08,02,0.80
2015,01,30,08,03,0.80
2015,01,30,08,04,0.80
2015,01,30,08,05,0.80
2015,01,30,08,06,0.80
2015,01,30,08,07,0.80
2015,01,30,08,08,0.80
2015,01,30,08,09,0.80
2015,01,30,08,10,0.80
2015,01,30,08,11,0.80
2015,01,30,08,12,0.90
2015,01,30,08,13,0.90
2015,01,30,08,14,0.90
2015,01,30,08,15,0.90
2015,01,30,08,16,1.00
2015,01,30,08,17,1.00
2015,01,30,08,18,1.10
2015,01,30,08,19,1.10
2015,01,30,08,20,1.20
2015,01,30,08,21,1.20
2015,01,30,08,22,1.30
2015,01,30,08,23,1.30
2015,01,30,08,24,1.40
2015,01,30,08,25,1.40
2015,01,30,08,26,1.40
2015,01,30,08,27,1.40
2015,01,30,08,28,1.40
2015,01,30,08,29,1.50
2015,01,30,08,30,1.50
2015,01,30,08,31,1.60
2015,01,30,08,32,1.60
2015,01,30,08,33,1.60
2015,01,30,08,34,1.60
2015,01,30,08,35,1.60
2015,01,30,08,36,1.60
2015,01,30,08,37,1.60
2015,01,30,08,38,1.50
2015,01,30,08,39,1.50
2015,01,30,08,40,1.50
2015,01,30,08,41,1.50
2015,01,30,08,42,1.40
2015,01,30,08,43,1.40
2015,01,30,08,44,1.40
2015,01,30,08,45,1.40
2015,01,30,08,46,1.40
2015,01,30,08,47,1.40
2015,01,30,08,48,1.50
2015,01,30,08,49,1.50
2015,01,30,08,50,1.60
2015,01,30,08,51,1.60
2015,01,30,08,52,1.60
2015,01,30,08,53,1.70
2015,01,30,08,54,1.70
2015,01,30,08,55,1.60
2015,01,30,08,56,1.50
2015,01,30,08,57,1.50
2015,01,30,08,58,1.40
2015,01,30,08,59,1.30
2015,01,30,09,00,1.30
2015,01,30,09,01,1.20
2015,01,30,09,02,1.20
2015,01,30,09,03,1.20
2015,01,30,09,04,1.20
2015,01,30,09,05,1.30
2015,01,30,09,06,1.30
2015,01,30,09,07,1.30
2015,01,30,09,08,1.40
2015,01,30,09,09,1.50
2015,01,30,09,10,1.50
2015,01,30,09,11,1.60
2015,01,30,09,12,1.60
2015,01,30,09,13,1.70
2015,01,30,09,14,1.70
2015,01,30,09,15,1.70
2015,01,30,09,16,1.80
2015,01,30,09,17,1.80
2015,01,30,09,18,1.90
2015,01,30,09,19,2.00
2015,01,30,09,20,2.10
2015,01,30,09,21,2.20
2015,01,30,09,22,2.30
2015,01,30,09,23,2.30
2015,01,30,09,24,2.40
2015,01,30,09,25,2.40
2015,01,30,09,26,2.50
2015,01,30,09,27,2.50
2015,01,30,09,28,2.60
2015,01,30,09,29,2.60
2015,01,30,09,30,2.60
2015,01,30,09,31,2.60
2015,01,30,09,32,2.70
2015,01,30,09,33,2.70
2015,01,30,09,34,2.70
2015,01,30,09,35,2.70
2015,01,30,09,36,2.80
2015,01,30,09,37,2.80
2015,01,30,09,38,2.80
2015,01,30,09,39,2.80
2015,01,30,09,40,2.90
2015,01,30,09,41,2.90
2015,01,30,09,42,2.90
2015,01,30,09,43,3.00
2015,01,30,09,44,3.00
2015,01,30,09,45,3.10
2015,01,30,09,46,3.10
2015,01,30,09,47,3.20
2015,01,30,09,48,3.30
2015,01,30,09,49,3.30
2015,01,30,09,50,3.40
2015,01,30,09,51,3.50
2015,01,30,09,52,3.50
2015,01,30,09,53,3.60
2015,01,30,09,54,3.60
2015,01,30,09,55,3.70
2015,01,30,09,56,3.70
2015,01,30,09,57,3.70
2015,01,30,09,58,3.70
2015,01,30,09,59,3.70
2015,01,30,10,00,3.70
2015,01,30,10,01,3.70
2015,01,30,10,02,3.70
2015,01,30,10,03,3.80
2015,01,30,10,04,3.80
2015,01,30,10,05,3.80
2015,01,30,10,06,3.80
2015,01,30,10,07,3.90
2015,01,30,10,08,3.90
2015,01,30,10,09,3.90
2015,01,30,10,10,3.90
2015,01,30,10,11,3.90
2015,01,30,10,12,3.90
2015,01,30,10,13,3.90
2015,01,30,10,14,3.90
2015,01,30,10,15,3.90
2015,01,30,10,16,3.90
2015,01,30,10,17,3.90
2015,01,30,10,18,3.90
2015,01,30,10,19,3.90
2015,01,30,10,20,3.90
2015,01,30,10,21,4.00
2015,01,30,10,22,4.00
2015,01,30,10,23,4.10
2015,01,30,10,24,4.10
2015,01,30,10,25,4.20
2015,01,30,10,26,4.20
2015,01,30,10,27,4.30
2015,01,30,10,28,4.50
2015,01,30,10,29,4.60
2015,01,30,10,30,4.70
2015,01,30,10,31,4.80
2015,01,30,10,32,4.90
2015,01,30,10,33,5.10
2015,01,30,10,34,5.20
2015,01,30,10,35,5.40
2015,01,30,10,36,5.60
2015,01,30,10,37,5.70
2015,01,30,10,38,5.70
2015,01,30,10,39,5.80
2015,01,30,10,40,5.80
2015,01,30,10,41,5.80
2015,01,30,10,42,5.80
2015,01,30,10,43,5.80
2015,01,30,10,44,5.90
2015,01,30,10,45,5.90
2015,01,30,10,46,6.00
2015,01,30,10,47,6.00
2015,01,30,10,48,6.10
2015,01,30,10,49,6.10
2015,01,30,10,50,6.10
2015,01,30,10,51,6.10
2015,01,30,10,52,6.10
2015,01,30,10,53,6.10
2015,01,30,10,54,6.00
2015,01,30,10,55,6.00
2015,01,30,10,56,5.90
2015,01,30,10,57,5.90
2015,01,30,10,58,5.90
2015,01,30,10,59,5.80
2015,01,30,11,00,5.80
2015,01,30,11,01,5.80
2015,01,30,11,02,5.80
2015,01,30,11,03,5.70
2015,01,30,11,04,5.80
2015,01,30,11,05,5.80
2015,01,30,11,06,5.80
2015,01,30,11,07,5.80
2015,01,30,11,08,5.80
2015,01,30,11,09,5.80
2015,01,30,11,10,5.80
2015,01,30,11,11,5.80
2015,01,30,11,12,5.80
2015,01,30,11,13,5.70
2015,01,30,11,14,5.60
2015,01,30,11,15,5.60
2015,01,30,11,16,5.50
2015,01,30,11,17,5.50
2015,01,30,11,18,5.40
2015,01,30,11,19,5.40
2015,01,30,11,20,5.40
2015,01,30,11,21,5.40
2015,01,30,11,22,5.40
2015,01,30,11,23,5.50
2015,01,30,11,24,5.50
2015,01,30,11,25,5.60
2015,01,30,11,26,5.60
2015,01,30,11,27,5.60
2015,01,30,11,28,5.60
2015,01,30,11,29,5.60
2015,01,30,11,30,5.70
2015,01,30,11,31,5.70
2015,01,30,11,32,5.70
2015,01,30,11,33,5.70
2015,01,30,11,34,5.70
2015,01,30,11,35,5.70
2015,01,30,11,36,5.70
2015,01,30,11,37,5.70
2015,01,30,11,38,5.70
2015,01,30,11,39,5.60
2015,01,30,11,40,5.60
2015,01,30,11,41,5.60
2015,01,30,11,42,5.60
2015,01,30,11,43,5.60
2015,01,30,11,44,5.60
2015,01,30,11,45,5.50
2015,01,30,11,46,5.50
2015,01,30,11,47,5.50
2015,01,30,11,48,5.50
2015,01,30,11,49,5.50
2015,01,30,11,50,5.50
2015,01,30,11,51,5.60
2015,01,30,11,52,5.60
2015,01,30,11,53,5.60
2015,01,30,11,54,5.70
2015,01,30,11,55,5.70
2015,01,30,11,56,5.70
2015,01,30,11,57,5.80
2015,01,30,11,58,5.80
2015,01,30,11,59,5.80
2015,01,30,12,00,5.80
2015,01,30,12,01,5.80
2015,01,30,12,02,5.80
2015,01,30,12,03,5.90
2015,01,30,12,04,6.00
2015,01,30,12,05,6.00
2015,01,30,12,06,6.10
2015,01,30,12,07,6.20
2015,01,30,12,08,6.20
2015,01,30,12,09,6.20
2015,01,30,12,10,6.30
2015,01,30,12,11,6.30
2015,01,30,12,12,6.30
2015,01,30,12,13,6.40
2015,01,30,12,14,6.40
2015,01,30,12,15,6.40
2015,01,30,12,16,6.50
2015,01,30,12,17,6.50
2015,01,30,12,18,6.60
2015,01,30,12,19,6.60
2015,01,30,12,20,6.60
2015,01,30,12,21,6.70
2015,01,30,12,22,6.70
2015,01,30,12,23,6.70
2015,01,30,12,24,6.70
2015,01,30,12,25,6.70
2015,01,30,12,26,6.70
2015,01,30,12,27,6.80
2015,01,30,12,28,6.80
2015,01,30,12,29,6.80
2015,01,30,12,30,6.80
2015,01,30,12,31,6.80
2015,01,30,12,32,6.80
2015,01,30,12,33,6.80
2015,01,30,12,34,6.80
2015,01,30,12,35,6.80
2015,01,30,12,36,6.80
2015,01,30,12,37,6.70
2015,01,30,12,38,6.60
2015,01,30,12,39,6.50
2015,01,30,12,40,6.50
2015,01,30,12,41,6.50
2015,01,30,12,42,6.60
2015,01,30,12,43,6.60
2015,01,30,12,44,6.70
2015,01,30,12,45,6.70
2015,01,30,12,46,6.70
2015,01,30,12,47,6.70
2015,01,30,12,48,6.70
2015,01,30,12,49,6.70
2015,01,30,12,50,6.70
2015,01,30,12,51,6.70
2015,01,30,12,52,6.70
2015,01,30,12,53,6.80
2015,01,30,12,54,6.80
2015,01,30,12,55,6.80
2015,01,30,12,56,6.80
2015,01,30,12,57,6.80
2015,01,30,12,58,6.80
2015,01,30,12,59,6.80
2015,01,30,13,00,6.80
2015,01,30,13,01,6.80
2015,01,30,13,02,6.80
2015,01,30,13,03,6.80
2015,01,30,13,04,6.80
2015,01,30,13,05,6.80
2015,01,30,13,06,6.70
2015,01,30,13,07,6.70
2015,01,30,13,08,6.70
2015,01,30,13,09,6.70
2015,01,30,13,10,6.70
2015,01,30,13,11,6.70
2015,01,30,13,12,6.70
2015,01,30,13,13,6.70
2015,01,30,13,14,6.70
2015,01,30,13,15,6.60
2015,01,30,13,16,6.60
2015,01,30,13,17,6.60
2015,01,30,13,18,6.50
2015,01,30,13,19,6.50
2015,01,30,13,20,6.50
2015,01,30,13,21,6.50
2015,01,30,13,22,6.50
2015,01,30,13,23,6.50
2015,01,30,13,24,6.40
2015,01,30,13,25,6.40
2015,01,30,13,26,6.40
2015,01,30,13,27,6.40
2015,01,30,13,28,6.40
2015,01,30,13,29,6.40
2015,01,30,13,30,6.40
2015,01,30,13,31,6.50
2015,01,30,13,32,6.50
2015,01,30,13,33,6.50
2015,01,30,13,34,6.50
2015,01,30,13,35,6.60
2015,01,30,13,36,6.60
2015,01,30,13,37,6.60
2015,01,30,13,38,6.60
2015,01,30,13,39,6.60
2015,01,30,13,40,6.70
2015,01,30,13,41,6.70
2015,01,30,13,42,6.80
2015,01,30,13,43,6.80
2015,01,30,13,44,6.80
2015,01,30,13,45,6.80
2015,01,30,13,46,6.80
2015,01,30,13,47,6.80
2015,01,30,13,48,6.80
2015,01,30,13,49,6.80
2015,01,30,13,50,6.80
2015,01,30,13,51,6.80
2015,01,30,13,52,6.80
2015,01,30,13,53,6.80
2015,01,30,13,54,6.80
2015,01,30,13,55,6.80
2015,01,30,13,56,6.90
2015,01,30,13,57,6.90
2015,01,30,13,58,6.90
2015,01,30,13,59,6.90
2015,01,30,14,00,7.00
2015,01,30,14,01,7.00
2015,01,30,14,02,7.00
2015,01,30,14,03,7.10
2015,01,30,14,04,7.10
2015,01,30,14,05,7.10
2015,01,30,14,06,7.00
2015,01,30,14,07,7.00
2015,01,30,14,08,7.00
2015,01,30,14,09,7.00
2015,01,30,14,10,7.00
2015,01,30,14,11,7.00
2015,01,30,14,12,7.00
2015,01,30,14,13,7.10
2015,01,30,14,14,7.10
2015,01,30,14,15,7.10
2015,01,30,14,16,7.10
2015,01,30,14,17,7.10
2015,01,30,14,18,7.00
2015,01,30,14,19,7.00
2015,01,30,14,20,7.00
2015,01,30,14,21,6.90
2015,01,30,14,22,6.90
2015,01,30,14,23,6.90
2015,01,30,14,24,6.90
2015,01,30,14,25,6.90
2015,01,30,14,26,6.90
2015,01,30,14,27,6.90
2015,01,30,14,28,6.90
2015,01,30,14,29,6.90
2015,01,30,14,30,6.90
2015,01,30,14,31,6.90
2015,01,30,14,32,6.90
2015,01,30,14,33,6.90
2015,01,30,14,34,6.90
2015,01,30,14,35,6.90
2015,01,30,14,36,6.90
2015,01,30,14,37,7.00
2015,01,30,14,38,7.00
2015,01,30,14,39,7.10
2015,01,30,14,40,7.10
2015,01,30,14,41,7.10
2015,01,30,14,42,7.10
2015,01,30,14,43,7.10
2015,01,30,14,44,7.20
2015,01,30,14,45,7.20
2015,01,30,14,46,7.20
2015,01,30,14,47,7.20
2015,01,30,14,48,7.30
2015,01,30,14,49,7.30
2015,01,30,14,50,7.30
2015,01,30,14,51,7.40
2015,01,30,14,52,7.40
2015,01,30,14,53,7.40
2015,01,30,14,54,7.40
2015,01,30,14,55,7.40
2015,01,30,14,56,7.40
2015,01,30,14,57,7.40
2015,01,30,14,58,7.40
2015,01,30,14,59,7.40
2015,01,30,15,00,7.30
2015,01,30,15,01,7.30
2015,01,30,15,02,7.30
2015,01,30,15,03,7.30
2015,01,30,15,04,7.30
2015,01,30,15,05,7.30
2015,01,30,15,06,7.30
2015,01,30,15,07,7.30
2015,01,30,15,08,7.30
2015,01,30,15,09,7.30
2015,01,30,15,10,7.30
2015,01,30,15,11,7.30
2015,01,30,15,12,7.30
2015,01,30,15,13,7.40
2015,01,30,15,14,7.40
2015,01,30,15,15,7.40
2015,01,30,15,16,7.40
2015,01,30,15,17,7.40
2015,01,30,15,18,7.30
2015,01,30,15,19,7.30
2015,01,30,15,20,7.30
2015,01,30,15,21,7.30
2015,01,30,15,22,7.30
2015,01,30,15,23,7.30
2015,01,30,15,24,7.30
2015,01,30,15,25,7.30
2015,01,30,15,26,7.30
2015,01,30,15,27,7.30
2015,01,30,15,28,7.30
2015,01,30,15,29,7.30
2015,01,30,15,30,7.40
2015,01,30,15,31,7.40
2015,01,30,15,32,7.40
2015,01,30,15,33,7.40
2015,01,30,15,34,7.40
2015,01,30,15,35,7.40
2015,01,30,15,36,7.30
2015,01,30,15,37,7.30
2015,01,30,15,38,7.40
2015,01,30,15,39,7.40
2015,01,30,15,40,7.40
2015,01,30,15,41,7.40
2015,01,30,15,42,7.40
2015,01,30,15,43,7.40
2015,01,30,15,44,7.50
2015,01,30,15,45,7.50
2015,01,30,15,46,7.50
2015,01,30,15,47,7.50
2015,01,30,15,48,7.50
2015,01,30,15,49,7.50
2015,01,30,15,50,7.50
2015,01,30,15,51,7.50
2015,01,30,15,52,7.50
2015,01,30,15,53,7.50
2015,01,30,15,54,7.60
2015,01,30,15,55,7.60
2015,01,30,15,56,7.50
2015,01,30,15,57,7.50
2015,01,30,15,58,7.50
2015,01,30,15,59,7.50
2015,01,30,16,00,7.50
2015,01,30,16,01,7.50
2015,01,30,16,02,7.50
2015,01,30,16,03,7.60
2015,01,30,16,04,7.60
2015,01,30,16,05,7.60
2015,01,30,16,06,7.60
2015,01,30,16,07,7.60
2015,01,30,16,08,7.60
2015,01,30,16,09,7.60
2015,01,30,16,10,7.60
2015,01,30,16,11,7.60
2015,01,30,16,12,7.70
2015,01,30,16,13,7.70
2015,01,30,16,14,7.80
2015,01,30,16,15,7.80
2015,01,30,16,16,7.70
2015,01,30,16,17,7.80
2015,01,30,16,18,7.70
2015,01,30,16,19,7.70
2015,01,30,16,20,7.70
2015,01,30,16,21,7.70
2015,01,30,16,22,7.70
2015,01,30,16,23,7.70
2015,01,30,16,24,7.70
2015,01,30,16,25,7.70
2015,01,30,16,26,7.70
2015,01,30,16,27,7.70
2015,01,30,16,28,7.60
2015,01,30,16,29,7.60
2015,01,30,16,30,7.60
2015,01,30,16,31,7.60
2015,01,30,16,32,7.60
2015,01,30,16,33,7.50
2015,01,30,16,34,7.50
2015,01,30,16,35,7.40
2015,01,30,16,36,7.40
2015,01,30,16,37,7.40
2015,01,30,16,38,7.40
2015,01,30,16,39,7.40
2015,01,30,16,40,7.30
2015,01,30,16,41,7.40
2015,01,30,16,42,7.40
2015,01,30,16,43,7.40
2015,01,30,16,44,7.40
2015,01,30,16,45,7.40
2015,01,30,16,46,7.40
2015,01,30,16,47,7.50
2015,01,30,16,48,7.50
2015,01,30,16,49,7.50
2015,01,30,16,50,7.50
2015,01,30,16,51,7.50
2015,01,30,16,52,7.40
2015,01,30,16,53,7.40
2015,01,30,16,54,7.40
2015,01,30,16,55,7.40
2015,01,30,16,56,7.30
2015,01,30,16,57,7.30
2015,01,30,16,58,7.30
2015,01,30,16,59,7.30
2015,01,30,17,00,7.30
2015,01,30,17,01,7.30
2015,01,30,17,02,7.20
2015,01,30,17,03,7.20
2015,01,30,17,04,7.20
2015,01,30,17,05,7.20
2015,01,30,17,06,7.20
2015,01,30,17,07,7.10
2015,01,30,17,08,7.10
2015,01,30,17,09,7.10
2015,01,30,17,10,7.00
2015,01,30,17,11,7.00
2015,01,30,17,12,6.90
2015,01,30,17,13,6.90
2015,01,30,17,14,6.80
2015,01,30,17,15,6.80
2015,01,30,17,16,6.70
2015,01,30,17,17,6.70
2015,01,30,17,18,6.60
2015,01,30,17,19,6.60
2015,01,30,17,20,6.50
2015,01,30,17,21,6.50
2015,01,30,17,22,6.40
2015,01,30,17,23,6.40
2015,01,30,17,24,6.30
2015,01,30,17,25,6.30
2015,01,30,17,26,6.20
2015,01,30,17,27,6.20
2015,01,30,17,28,6.20
2015,01,30,17,29,6.10
2015,01,30,17,30,6.10
2015,01,30,17,31,6.10
2015,01,30,17,32,6.10
2015,01,30,17,33,6.00
2015,01,30,17,34,6.00
2015,01,30,17,35,6.00
2015,01,30,17,36,5.90
2015,01,30,17,37,5.90
2015,01,30,17,38,5.90
2015,01,30,17,39,5.90
2015,01,30,17,40,5.80
2015,01,30,17,41,5.80
2015,01,30,17,42,5.80
2015,01,30,17,43,5.80
2015,01,30,17,44,5.80
2015,01,30,17,45,5.80
2015,01,30,17,46,5.70
2015,01,30,17,47,5.70
2015,01,30,17,48,5.70
2015,01,30,17,49,5.70
2015,01,30,17,50,5.60
2015,01,30,17,51,5.60
2015,01,30,17,52,5.60
2015,01,30,17,53,5.60
2015,01,30,17,54,5.50
2015,01,30,17,55,5.50
2015,01,30,17,56,5.40
2015,01,30,17,57,5.40
2015,01,30,17,58,5.40
2015,01,30,17,59,5.40
2015,01,30,18,00,5.40
2015,01,30,18,01,5.30
2015,01,30,18,02,5.30
2015,01,30,18,03,5.30
2015,01,30,18,04,5.30
2015,01,30,18,05,5.30
2015,01,30,18,06,5.30
2015,01,30,18,07,5.20
2015,01,30,18,08,5.20
2015,01,30,18,09,5.20
2015,01,30,18,10,5.20
2015,01,30,18,11,5.10
2015,01,30,18,12,5.10
2015,01,30,18,13,5.10
2015,01,30,18,14,5.10
2015,01,30,18,15,5.10
2015,01,30,18,16,5.00
2015,01,30,18,17,5.00
2015,01,30,18,18,5.00
2015,01,30,18,19,5.00
2015,01,30,18,20,5.00
2015,01,30,18,21,5.00
2015,01,30,18,22,4.90
2015,01,30,18,23,4.90
2015,01,30,18,24,4.90
2015,01,30,18,25,4.90
2015,01,30,18,26,4.80
2015,01,30,18,27,4.80
2015,01,30,18,28,4.80
2015,01,30,18,29,4.80
2015,01,30,18,30,4.80
2015,01,30,18,31,4.80
2015,01,30,18,32,4.80
2015,01,30,18,33,4.80
2015,01,30,18,34,4.80
2015,01,30,18,35,4.80
2015,01,30,18,36,4.80
2015,01,30,18,37,4.90
2015,01,30,18,38,5.00
2015,01,30,18,39,5.00
2015,01,30,18,40,5.10
2015,01,30,18,41,5.20
2015,01,30,18,42,5.20
2015,01,30,18,43,5.20
2015,01,30,18,44,5.20
2015,01,30,18,45,5.20
2015,01,30,18,46,5.30
2015,01,30,18,47,5.20
2015,01,30,18,48,5.20
2015,01,30,18,49,5.10
2015,01,30,18,50,5.00
2015,01,30,18,51,5.00
2015,01,30,18,52,4.90
2015,01,30,18,53,4.90
2015,01,30,18,54,4.90
2015,01,30,18,55,4.80
2015,01,30,18,56,4.80
2015,01,30,18,57,4.80
2015,01,30,18,58,4.80
2015,01,30,18,59,4.80
2015,01,30,19,00,4.80
2015,01,30,19,01,4.80
2015,01,30,19,02,4.80
2015,01,30,19,03,4.90
2015,01,30,19,04,4.90